Regional Weather Roundup
Issued by NWS

Home | Current Version | Previous Version | Graphics & Text | Print | Product List | Glossary On
Versions: 1 2 3 4 5 6 7 8 9 10 11 12 13 14 15 16 17 18 19 20 21 22 23 24 25 26 27 28 29 30 31 32 33 34 35 36 37 38 39 40 41 42 43 44 45 46 47 48 49 50
000
ASUS43 KDMX 251408
RWRIA

WEATHER ROUNDUP FOR IOWA
NATIONAL WEATHER SERVICE DES MOINES IA
900 AM CDT WED MAY 25 2016

NOTE: "FAIR" INDICATES FEW OR NO CLOUDS BELOW 12,000 FEET WITH NO
SIGNIFICANT WEATHER AND/OR OBSTRUCTIONS TO VISIBILITY.

* - THESE STATIONS ARE NOT NWS STATIONS...THUS NOT UNDER NWS
QUALITY CONTROL.  THEY ALSO DO NOT REPORT WEATHER SUCH
AS PRECIPITATION OR FOG.

IAZ001>003-012>014-020>022-031>034-043>046-251500-
   NORTHWEST IOWA

CITY           SKY/WX    TMP DP  RH WIND       PRES   REMARKS
CARROLL *      CLOUDY    64  64 100 S13       29.91R FOG
CHEROKEE *     CLOUDY    66  63  88 SE7       29.86F
DENISON *      CLOUDY    64  63  94 SE9       29.87S
LE MARS *      MOSUNNY   68  63  83 S8        29.84F
ORANGE CITY *  CLOUDY    66  63  88 S8        29.84S
SHELDON *      CLOUDY    68  63  83 SE10G17   29.82F
SIOUX CITY     CLOUDY    68  60  75 SE9       29.84F
SPENCER        LGT RAIN  66  61  84 S5        29.88R
STORM LAKE *   CLOUDY    64  61  88 S7        29.88F
$$

IAZ055>058-069>071-079>083-090>094-251500-
   SOUTHWEST IOWA

CITY           SKY/WX    TMP DP  RH WIND       PRES   REMARKS
ATLANTIC *     CLOUDY    68  64  88 S10       29.90R
AUDUBON *        N/A     64  63  94 CALM      29.91S
CLARINDA *       N/A     66  63  88 MISG      29.95R FOG
COUNCIL BLFS * SUNNY     66  64  94 VRB6      29.90R
CRESTON *      SUNNY     66  64  94 S6        29.94R
HARLAN  *        N/A    N/A N/A N/A MISG        N/A
LAMONI         CLOUDY    66  63  90 S6        29.93R
RED OAK *      LGT RAIN  68  63  83 S9        29.91F
SHENANDOAH *   PTSUNNY   66  64  94 S6        29.93R
$$

IAZ047>049-059>061-072>074-084-251500-
   CENTRAL IOWA

CITY           SKY/WX    TMP DP  RH WIND       PRES   REMARKS
AMES           LGT RAIN  65  64  97 S15       29.91R FOG
ANKENY *       CLOUDY    66  66 100 E5        29.88F FOG
BOONE *        HVY RAIN  64  64 100 S10G21    29.91R VSB 1/4
CHARITON *     SUNNY     66  64  94 S9        29.90S
DES MOINES     LGT RAIN  66  63  90 S6        29.91S
GRINNELL*      LGT RAIN  64  64 100 S12       29.92R
KNOXVILLE *    CLOUDY    66  64  94 VRB5      29.90S
MARSHALLTOWN   CLOUDY    67  65  93 E13       29.88R
NEWTON *       CLOUDY    66  66 100 S9        29.92R
PELLA *        CLOUDY    66  64  94 SE6       29.91S FOG
PERRY *        LGT RAIN  66  64  94 CALM      29.90F
$$

IAZ004>006-015-016-023>025-035-036-251500-
   NORTH CENTRAL IOWA

CITY           SKY/WX    TMP DP  RH WIND       PRES   REMARKS
ALGONA *       SUNNY     66  64  94 CALM      29.87F
CLARION *      CLOUDY    64  64 100 NE9       29.83F
ESTHERVILLE    PTSUNNY   64  63  96 S6        29.86F
FORT DODGE *   CLOUDY    64  61  88 SE3       29.88S
MASON CITY     LGT RAIN  65  65 100 CALM      29.91F FOG
FOREST CITY *  LGT RAIN  64  64 100 CALM      29.89F
WEBSTER CITY * CLOUDY    64  63  94 S10       29.84R
IOWA FALLS *     N/A     66  64  94 E6        29.88F
$$

IAZ007>011-017>019-026>030-037>042-050>054-066-251500-
   NORTHEAST IOWA

CITY           SKY/WX    TMP DP  RH WIND       PRES   REMARKS
CEDAR RAPIDS   CLOUDY    67  65  93 SE7       29.93F
CHARLES CITY * LGT RAIN  64  64 100 NE7G15    29.89F
CLINTON *      CLOUDY    72  64  76 S13       29.97R
DECORAH *      PTSUNNY   66  66 100 S7        29.95S
DUBUQUE        CLOUDY    71  62  73 S13       29.97S
MONTICELLO *   CLOUDY    70  63  78 SE7       29.96R
OELWEIN *      LGT RAIN  66  66 100 SE7       29.96F
WATERLOO       LGT RAIN  65  62  90 SE10G17   29.87F
$$

IAZ064-065-067-068-078-251500-
   EAST CENTRAL IOWA

CITY           SKY/WX    TMP DP  RH WIND       PRES   REMARKS
DAVENPORT      CLOUDY    70  62  76 SE10      29.96S
IOWA CITY      PTSUNNY   67  64  90 SE9       29.95F
MT. PLEASANT * CLOUDY    72  66  83 SE13      29.93S
MUSCATINE *    MOSUNNY   70  63  78 S8        29.95S
QUAD CITIES    CLOUDY    71  62  73 S12       29.95S
$$

IAZ062-063-075>077-085>089-095>099-251500-
   SOUTHEAST IOWA

CITY           SKY/WX    TMP DP  RH WIND       PRES   REMARKS
BURLINGTON     CLOUDY    65  64  97 S10       29.94F
FAIRFIELD *      N/A    N/A N/A N/A MISG        N/A
FORT MADISON * MOSUNNY   70  64  83 SE9       29.94F
KEOKUK *       PTSUNNY   70  64  83 SE7       29.93F
OSKALOOSA *    CLOUDY    68  64  88 S13       29.91R
OTTUMWA        CLOUDY    67  63  87 S10       29.90S
WASHINGTON *   MOSUNNY   68  68 100 SE12      29.94S
$$

ABBREVIATIONS USED IN REMARKS
   TC - TEMPERATURES IN CELSIUS
  WCI - WIND CHILL INDEX
   HX - HEAT INDEX
  VSB - VISIBILITY
$$




USA.gov is the U.S. government's official web portal to all federal, state and local government web resources and services.